Home   Weather   Houmt Souk (Djerba)   Past weeks

Flag for Tunisia Past Weather in Houmt Souk (Djerba), Tunisia — Yesterday and Last 2 Weeks

Now
54 °F

Passing clouds.


Feels Like: 52 °F
Forecast: 64 / 70 °F
Wind: 6 mph from South

Location: Djerba Mellita

Current Time: Dec 3, 2016 at 11:04:11 pm

Latest Report: Dec 3, 2016 at 10:30 pm


Visibility: N/A

Pressure: 30.07 "Hg

Humidity: 72%

Dew Point: 45 °F

Location of Houmt Souk (Djerba)Location

Past Weather in Houmt Souk (Djerba) — Graph

°F

Houmt Souk (Djerba) Temperature Yesterday

Maximum temperature yesterday: 64 °F (at 1:30 pm)
Minimum temperature yesterday: 52 °F (at 2:00 am)
Average temperature yesterday: 60 °F

High & Low Weather Summary for the Past Weeks

 TemperatureHumidityPressure
High75 °F (Nov 23, 2:30 pm)100% (Nov 23, 4:30 am)30.39 "Hg (Nov 23, 4:30 am)
Low48 °F (Dec 3, 3:30 am)37% (Dec 3, 2:30 pm)29.74 "Hg (Nov 28, 3:00 pm)
Average63 °F68%30.00 "Hg
* Reported Nov 18 10:00 pm — Dec 3 10:00 pm, Houmt Souk (Djerba), Weather by CustomWeather, © 2016

Note: Actual official high and low records may vary slightly from our data, if they occured in-between our weather recording intervals... More about our weather records

Advertising

Houmt Souk (Djerba) Weather History for the Previous 24 Hours

Scroll right to see more
 ConditionsComfort  
Time TempWeatherWind HumidityBarometerVisibility
10:00 pm
Sat, Dec 3
54 °FPassing clouds.7 mph67%30.07 "HgN/A
9:30 pm54 °FPassing clouds.6 mph63%30.07 "HgN/A
9:00 pm54 °FPassing clouds.5 mph63%30.07 "HgN/A
8:30 pm55 °FPassing clouds.3 mph59%30.07 "HgN/A
8:00 pm55 °FPassing clouds.3 mph63%30.07 "HgN/A
7:30 pm55 °FPassing clouds.5 mph59%30.04 "HgN/A
7:00 pm57 °FPassing clouds.5 mph51%30.04 "HgN/A
6:30 pm59 °FPassing clouds.No wind48%30.04 "HgN/A
6:00 pm59 °FPassing clouds.5 mph48%30.04 "HgN/A
5:30 pm61 °FPassing clouds.5 mph45%30.01 "HgN/A
5:00 pm63 °FPassing clouds.5 mph42%30.04 "HgN/A
4:30 pm64 °FPassing clouds.5 mph40%30.01 "HgN/A
4:00 pm64 °FPassing clouds.5 mph40%30.04 "HgN/A
3:00 pm66 °FPassing clouds.7 mph40%30.04 "HgN/A
2:30 pm66 °FPassing clouds.7 mph37%30.01 "HgN/A
2:00 pm66 °FPassing clouds.7 mph40%30.04 "HgN/A
1:30 pm64 °FPassing clouds.7 mph40%30.04 "HgN/A
1:00 pm64 °FPassing clouds.7 mph43%30.04 "HgN/A
12:30 pm63 °FPassing clouds.6 mph49%30.04 "HgN/A
12:00 pm61 °FSunny.7 mph45%30.07 "Hg10 mi
11:30 am63 °FSunny.7 mph52%30.09 "Hg10 mi
11:00 am61 °FSunny.7 mph59%30.09 "Hg10 mi
10:30 am57 °FSunny.7 mph67%30.09 "Hg10 mi
10:00 am55 °FSunny.7 mph77%30.09 "Hg10 mi
9:30 am54 °FPassing clouds.7 mph77%30.09 "HgN/A
9:00 am55 °FPassing clouds.7 mph67%30.07 "HgN/A
8:30 am54 °FPassing clouds.6 mph72%30.07 "HgN/A
8:00 am50 °FPassing clouds.7 mph82%30.07 "HgN/A
7:30 am48 °FPassing clouds.5 mph87%30.07 "Hg5 mi
7:00 am48 °FPassing clouds.6 mph82%30.07 "Hg5 mi
6:30 am48 °FPassing clouds.8 mph76%30.07 "Hg5 mi
6:00 am48 °FPassing clouds.7 mph76%30.07 "Hg5 mi
5:30 am48 °FPassing clouds.7 mph76%30.07 "Hg5 mi
5:00 am48 °FPassing clouds.7 mph76%30.07 "Hg5 mi
4:30 am48 °FPassing clouds.6 mph76%30.07 "Hg5 mi
4:00 am48 °FPassing clouds.6 mph76%30.07 "Hg5 mi
3:30 am48 °FPassing clouds.7 mph76%30.07 "HgN/A
3:00 am50 °FPassing clouds.7 mph71%30.07 "HgN/A
2:30 am50 °FPassing clouds.6 mph76%30.07 "HgN/A
1:30 am50 °FPassing clouds.6 mph76%30.09 "HgN/A
1:00 am52 °FPassing clouds.6 mph72%30.09 "HgN/A
12:30 am54 °FPassing clouds.7 mph67%30.09 "HgN/A
12:00 am54 °FPassing clouds.7 mph67%30.09 "HgN/A
11:30 pm
Fri, Dec 2
54 °FPassing clouds.6 mph67%30.09 "HgN/A
11:00 pm55 °FPassing clouds.9 mph67%30.09 "HgN/A
Weather by CustomWeather, © 2016

See weather overviewHow to use our weather pages